Погода Боковская

Погода Боковская : погода сейчас, прогноз погоды и архив. Всё, что Вы хотите узнать о погоде Боковская!

Хотите узнать прогноз погоды Боковская? Тогда Вам сюда: Погода Боковская

Поиск расширенной информации на нашем сайте:

Другие новости

Новости СМИ2

Главная страница сайта

Новости сайта

03.07.2017

Напоминаем, что на нашем специализированном сайте Метеоцентр.Азия вы можете получить высокодетализированные автоматические прогнозы погоды по пунктам России, СНГ и мира в авиационном формате (включающие направление и скорость ветра, видимость, явления погоды, количество и форму облачности, нижнюю и верхнюю границу облачности).

Рекомендуем: Tom Ford Amber Absolute парфюм

Погода Боковская - сегодня

Время (UTC), дата Ветер
(°,м/с) 
Видим.   Явления Облачность Т
(°С)
Тd
(°С)
f(%) Тe
(°С)
Pmin
(гПа)
dP
(гПа)
Po
(мм)
O2
(г/м3)
Тmin Tmax R s Состояние
почвы
03 19.05.18 190 (Ю) 20000 м    3/0 средняя 
[Ac trans]
+16.1 +12.9 81 +21  1012.7  0.2  751  283  +15.4      влажная 
06 19.05.18 200 (Ю) 20000 м    ясно 
+21.6 +15.1 67 +30  1012.7  0.2  752  277           
09 19.05.18 220 (ЮЗ) 5{10}  20000 м    3/3 1000 м 
[Cu hum]
+25.1 +10.1 39 +26  1012.6  752  276           
12 19.05.18 200 (Ю) 5-10{11}  20000 м    10/4 1000 м верхняя 
[Cu med, cong|Ci]
+27 +9.4 33 +27  1011.7  -0.9  751  274           
15 19.05.18 220 (ЮЗ) 4{10}  20000 м    8/3 600 м кучево-дожд., средняя, верхняя 
[Cb cap|Ac cuf|Ci sp]
+24 +10.3 42 +26  1012.2  0.4  751  276    +27.2       
18 19.05.18 310 (СЗ) 20000 м    10/0 средняя, верхняя 
[Ac cast|Ci sp]
+17.7 +11.9 69 +23  1013.8  1.4  752  282           
21 19.05.18 тихо ()   20000 м    ясно 
+13.1 +11.1 88 +16  1014.3  0.3  752  287           
00 20.05.18 тихо ()   20000 м    ясно 
+12.2 +11 92 +15  1013.7  0.3  752  288           
03 20.05.18 тихо ()   4000 м  дымка  10/0 верхняя 
[Ci sp]
+14 +12.3 89 +18  1014.5  0.9  753  286  +11.7         
06 20.05.18 170 (Ю) 20000 м    8/0 средняя, верхняя 
[Ac As|Cs]
+21.6 +13.5 60 +28  1014.5  0.3  753  278           
09 20.05.18 210 (ЮЗ) 20000 м    10/0 средняя 
[Ac As]
+23.7 +14 55 +31  1014.7  0.3  753  276           
12 20.05.18 170 (Ю) 1{11}  20000 м    9/8 600 м средняя 
[Cu med, cong|Ac As]
+25 +11.8 44 +29  1014.1  -0.5  753  276           
15 20.05.18 тихо ()   20000 м  {ливн. осадки}  8/5 600 м кучево-дожд., средняя, верхняя 
[Cb cap|Ac As|Ci fib]
+22.9 +17.6 72 +36  1013.3  -0.8  752  276    +26.5     
18 20.05.18 300 (СЗ) 20000 м  {ливн. осадки}  10/0 средняя 
[Ac As]
+20.1 +15.7 76 +30  1014.4  0.9  753  279           
21 20.05.18 тихо ()   20000 м    10/0 средняя 
[Ac As]
+16.5 +14.2 86 +24  1013.8  -0.6  752  283           
00 21.05.18 тихо () {12}  20000 м  {ливн. осадки}  10/10 600 м кучево-дожд. 
[Cb cap]
+16 +14.2 89 +23  1014.6  0.7  753  284           
03 21.05.18 350 (С) 4000 м  дымка  9/0 средняя, верхняя 
[Ac As|Ci fib]
+16.7 +15.4 92 +27  1014.7  0.1  753  283  +15.7       
06 21.05.18 100 (В) 20000 м    10/4 600 м кучево-дожд., средняя 
[Cb cap|Ac As]
+20.2 +16 77 +31  1016  1.5  754  279           
09 21.05.18 080 (В) 20000 м    10/4 600 м кучево-дожд., средняя, верхняя 
[Cb cap|Ac As|Ci sp]
+23.5 +16.1 63 +34  1016.3  0.4  754  276           
12 21.05.18 120 (ЮВ) 20000 м    10/4 600 м кучево-дожд., средняя 
[Cb cap|Ac As]
+23 +16.5 67 +34  1017  0.7  755  277           
15 21.05.18 120 (ЮВ) 20000 м    9/3 600 м кучево-дожд., средняя 
[Cb cap|Ac As]
+23.9 +15.9 61 +34  1017  755  276    +24       
18 21.05.18 310 (СЗ) 20000 м    8/3 600 м кучево-дожд., средняя, верхняя 
[Cb cap|Ac As|Ci sp]
+19.2 +16.5 84 +32  1018.7  1.5  756  281           
21 21.05.18 270 (З) 20000 м    6/0 средняя 
[Ac As]
+16.8 +14.2 85 +25  1018.7  -0.1  756  284           
00 22.05.18 340 (С) 4000 м  дымка  1/0 средняя 
[Ac As]
+16.1 +14.5 90 +25  1019.1  0.3  756  285           
03 22.05.18 310 (СЗ) 4000 м  дымка  8/0 средняя 
[Ac trans]
+15.7 +14.4 92 +23  1020.5  1.4  757  286  +14.3         
Время (UTC), дата Ветер
(°,м/с) 
Видим.   Явления Облачность Т
(°С)
Тd
(°С)
f(%) Тe
(°С)
Pmin
(гПа)
dP
(гПа)
Po
(мм)
O2
(г/м3)
Тmin Tmax R s Состояние
почвы

Для получения пояснительной информации подведите курсор к названию столбца.

ПОГОДА Боковская - архив

Всё, что Вы хотите узнать о погоде Боковская - удобно и подробно!

Выберите нужную дату (начиная с 1 января 2015* года) и нажмите кнопку "Найти".
Будут отображены архивные сводки погоды по пункту Боковская, начиная с указанной даты.


Отображать данные в формате CSV (для использования в таблицах Excel)


Внимание! Наш архив погоды предназначен исключительно для личного некоммерческого использования в познавательных целях. Если Вам необходимы официальные справки о состоянии погоды (для производственных, юридических, коммерческих и т.п. целей), обращайтесь в органы Росгидромета.

*Примечание: данная дата относится к архиву по метеостанциям СССР (Россия, СНГ, Балтия).
Архив по метеостанциям Зарубежной Европы и Азии (кроме Китая) хранится 10 дней, по другим регионам земного шара (Китай, Африка, Америка, Австралия, Океания) - 1 день.

Боковская - район местоположения метеостанции


Название, широта, долгота, высота метеостанции:
Боковская 49.2°ш. 41.8°д. 91 м над ур. моря [Российская Федерация]

Дополнительная информация

В oтличие oт бoльшинства пoгoдных сайтoв мы публикуем пoдрoбную метеoинфoрмацию в детальнoм прoфессиoнальнoм фoрмате.

Характеристики температуры и влажнoсти вoздуха измеряются на высoте 2 м в тени вдали oт зданий и деревьев.
Скoрoсть ветра измеряется на высoте 10 м (на урoвне рoста челoвека скoрoсть ветра ниже в 1.5-2 раза). Если метеoстанция нахoдится в гoрoде или в лесу, тo скoрoсть ветра занижена на 2-4 м/с пo сравнению с oткрытым местoм. Скoрoсть ветра над акватoриями крупных рек и oзёр, а также на вершинах хoлмoв на 2-5 м/с выше, чем в oбычных услoвиях.
Атмoсфернoе давление в разных тoчках местнoсти мoжет значительнo oтличаться oт давления на метеoстанции, в зависимoсти oт услoвий рельефа (при пoдъёме на 10 м давление пoнижается примернo на 1 мм рт.ст.).